[[{"header":{"parameterUnit":"m.s-1","parameterCategory":1,"la1":30.2991,"la2":30.254,"lo1":-89.0895,"lo2":-89.0444,"dy":0.0017,"dx":0.0017,"nx":28,"ny":28,"refTime":"2023-10-09T21:00:00:Z","depth":0,"parameterNumber":2,"parameterNumberName":"U-component_of_WINDS"},"data":[0,0,0,0,0,0,0,0,0,0,0,0,0,0,0,0,0,0,0,0,0,0,0,0,0,0,0,0,0,0,0,0,0,0,0,0,0,0,0,0,0,0,0,0,0,0,0,0,0,0,0,0,0,0,0,0,0,0,1.1142,1.1142,0,1.1194,1.1194,1.1195,1.1219,1.1219,1.1219,1.1219,1.1272,1.1274,1.1275,0,0,0,0,0,0,0,0,0,0,0,0,0,1.1062,1.1064,1.1142,1.1143,1.1143,1.1194,1.1194,1.1195,1.1219,1.1219,1.1219,1.1219,1.1272,1.1273,1.1275,0,0,0,0,0,0,0,0,0,0,0,0,0,1.1104,1.1064,1.1142,1.1161,1.1163,1.1193,1.1194,1.1195,1.1219,1.1219,1.1219,1.1219,1.1271,1.1273,1.1275,1.129,0,0,1.1282,1.1283,0,0,0,0,0,0,0,0,1.1101,1.1107,1.1158,1.116,1.1162,1.12,1.1186,1.1227,1.1219,1.1198,1.1219,1.1219,1.1248,1.1252,1.1262,1.1293,1.1295,1.1282,1.1284,1.1284,1.1285,0,0,0,0,0,0,0,1.1098,1.1105,1.1162,1.1158,1.1161,1.1167,1.1173,1.1194,1.1223,1.12,1.1202,1.1207,1.1249,1.126,1.1263,1.1296,1.1282,1.1284,1.1285,1.1286,1.1338,1.1338,0,0,0,0,0,0,1.1092,1.1102,1.1161,1.1164,1.1131,1.1168,1.1175,1.1188,1.1223,1.1228,1.1207,1.1208,1.1256,1.1261,1.1265,1.1284,1.1284,1.1286,1.1288,1.1338,1.1338,1.1338,0,0,0,0,0,0,1.1091,1.1097,1.1159,1.1133,1.1142,1.117,1.1184,1.1189,1.1199,1.1228,1.1234,1.1213,1.1256,1.1262,1.1283,1.1286,1.1287,1.1289,1.1338,1.1338,1.1338,1.1321,0,0,0,0,0,0,1.1088,1.1097,1.1103,1.1133,1.1143,1.1176,1.1184,1.119,1.1203,1.1205,1.1235,1.124,1.1257,1.128,1.1285,1.1289,1.1291,1.1338,1.1338,1.1338,1.1321,1.1321,1.132,0,0,0,0,0,1.1085,1.1097,1.1103,1.111,1.1152,1.1176,1.1182,1.1201,1.1203,1.121,1.1228,1.1239,1.1284,1.1282,1.1288,1.1293,1.1338,1.1338,1.1338,1.1322,1.1321,1.132,0,0,0,0,0,0,1.1067,1.1101,1.1109,1.1131,1.115,1.118,1.1189,1.1199,1.1219,1.122,1.1243,1.1249,1.1268,1.1282,1.1278,1.1307,1.1312,1.1314,1.1297,1.1297,1.1296,1.1292,1.1293,0,0,0,0,0,1.1065,1.1083,1.1112,1.1128,1.1137,1.1161,1.1173,1.1185,1.1207,1.1215,1.1235,1.1255,1.1274,1.1286,1.1305,1.1323,1.1329,1.1329,1.1328,1.1327,1.1328,1.1337,1.1337,1.1339,1.1339,1.1339,0,0,1.1062,1.1083,1.1093,1.1124,1.1141,1.1158,1.1168,1.1186,1.1198,1.1218,1.1239,1.1254,1.1277,1.1296,1.1306,1.1309,1.1329,1.1328,1.1327,1.1328,1.1338,1.1337,1.1337,1.1339,1.1339,1.1339,0,0,1.1066,1.1083,1.1098,1.1114,1.1139,1.1154,1.1157,1.1186,1.1196,1.1217,1.1231,1.1246,1.1278,1.1294,1.1306,1.1312,1.1323,1.1318,1.1313,1.1322,1.1322,1.1321,1.1323,1.1323,1.1318,1.1318,1.1318,0,1.1059,1.1085,1.1104,1.1121,1.1134,1.1151,1.1165,1.118,1.121,1.1218,1.1221,1.126,1.1277,1.13,1.1301,1.131,1.1314,1.1315,1.132,1.132,1.132,1.1322,1.1322,1.1318,1.1318,1.1318,1.1318,0,1.1075,1.1093,1.1102,1.1129,1.1143,1.1158,1.1179,1.119,1.1201,1.1215,1.1235,1.1256,1.1279,1.1285,1.1296,1.1308,1.1309,1.1316,1.1321,1.1319,1.1321,1.1321,1.1316,1.1317,1.1317,1.1317,0,0,1.1071,1.1106,1.1109,1.1121,1.1148,1.1162,1.1177,1.1198,1.1207,1.1226,1.1239,1.1264,1.127,1.1284,1.1296,1.1304,1.1305,1.1309,1.131,1.1307,1.1318,1.1313,1.1314,1.1312,1.1312,1.1312,1.1316,0,1.1077,1.1106,1.1122,1.1143,1.1159,1.1174,1.1187,1.1205,1.1218,1.1233,1.1248,1.1265,1.1271,1.1279,1.1287,1.1304,1.1308,1.1304,1.1324,1.1324,1.1317,1.1315,1.131,1.1313,1.1317,1.1317,1.1317,0,1.109,1.1107,1.113,1.1153,1.116,1.1172,1.1192,1.1206,1.1225,1.1234,1.1248,1.126,1.1276,1.1279,1.13,1.1296,1.1305,1.1314,1.1314,1.1317,1.1321,1.1317,1.1314,1.1314,1.1318,1.1318,1.1318,0,1.1083,1.1113,1.1129,1.1139,1.1167,1.1174,1.1186,1.1205,1.1216,1.1233,1.1241,1.1259,1.1269,1.1283,1.1299,1.13,1.1318,1.1323,1.1326,1.1325,1.1329,1.1329,1.1327,1.1335,1.1335,1.1335,1.1335,0,1.1089,1.1102,1.1127,1.1137,1.1151,1.1169,1.1183,1.1196,1.1212,1.1225,1.1239,1.125,1.1271,1.1284,1.1297,1.1312,1.1316,1.1324,1.1327,1.1322,1.1321,1.1329,1.1329,1.1335,1.1335,1.1335,1.1335,0,1.1085,1.1102,1.1121,1.1145,1.1151,1.1161,1.1181,1.1191,1.1204,1.1219,1.1224,1.1244,1.1261,1.1278,1.1301,1.1309,1.1323,1.1327,1.1316,1.1318,1.1319,1.1319,1.1323,1.1323,1.133,1.133,1.133,0,1.1088,1.1098,1.1123,1.1132,1.1143,1.1158,1.1168,1.1185,1.1196,1.1217,1.1224,1.1241,1.1256,1.1281,1.1298,1.1315,1.132,1.132,1.1322,1.1317,1.1319,1.1318,1.1319,1.1319,1.1319,1.1319,1.1319,0,1.1091,1.1098,1.1114,1.1131,1.1143,1.1158,1.1173,1.1179,1.1199,1.121,1.1226,1.1237,1.1259,1.1276,1.1294,1.1305,1.1315,1.1317,1.1319,1.1315,1.1307,1.131,1.1314,1.1318,1.1318,1.1318,1.1318,1.1318,1.1091,1.11,1.1118,1.1133,1.1146,1.1159,1.1169,1.1182,1.1196,1.1215,1.1224,1.124,1.1257,1.1282,1.1293,1.1305,1.1308,1.131,1.1311,1.1311,1.1309,1.1305,1.1308,1.1308,1.1309,1.1309,1.1309,0,1.1094,1.1106,1.112,1.114,1.1151,1.1158,1.1175,1.1184,1.1198,1.1212,1.1226,1.1244,1.1259,1.1276,1.1292,1.1298,1.1303,1.1302,1.1301,1.1304,1.1306,1.1303,1.1297,1.1297,1.1297,1.1297,1.1297,1.1297,1.1098,1.1113,1.1121,1.1142,1.1153,1.1169,1.1177,1.1189,1.12,1.1219,1.1232,1.1242,1.1257,1.1274,1.1288,1.1292,1.1297,1.1295,1.13,1.1303,1.1304,1.1305,1.1302,1.1296,1.1296,1.1297,1.1297,1.1297]},{"header":{"parameterUnit":"m.s-1","parameterCategory":1,"la1":30.2991,"la2":30.254,"lo1":-89.0895,"lo2":-89.0444,"dy":0.0017,"dx":0.0017,"nx":28,"ny":28,"refTime":"2023-10-09T21:00:00:Z","depth":0,"parameterNumber":3,"parameterNumberName":"V-component_of_WINDS"},"data":[0,0,0,0,0,0,0,0,0,0,0,0,0,0,0,0,0,0,0,0,0,0,0,0,0,0,0,0,0,0,0,0,0,0,0,0,0,0,0,0,0,0,0,0,0,0,0,0,0,0,0,0,0,0,0,0,0,0,3.1118,3.1118,0,3.1031,3.103,3.1029,3.1018,3.1019,3.102,3.1021,3.0923,3.092,3.0916,0,0,0,0,0,0,0,0,0,0,0,0,0,3.1269,3.1267,3.1119,3.1117,3.1116,3.1031,3.1029,3.1028,3.1018,3.1019,3.102,3.1021,3.0924,3.092,3.0916,0,0,0,0,0,0,0,0,0,0,0,0,0,3.1195,3.1266,3.1119,3.1101,3.1099,3.1031,3.1029,3.1028,3.1018,3.1019,3.102,3.1021,3.0925,3.092,3.0915,3.0857,0,0,3.09,3.0897,0,0,0,0,0,0,0,0,3.1199,3.1189,3.1105,3.1102,3.1099,3.1037,3.1047,3.097,3.1017,3.1048,3.1021,3.1022,3.0959,3.0951,3.0932,3.0853,3.0848,3.0899,3.0896,3.0894,3.0892,0,0,0,0,0,0,0,3.1204,3.1193,3.1083,3.1103,3.11,3.1095,3.1086,3.1032,3.0997,3.1045,3.1045,3.1035,3.0958,3.0937,3.0929,3.0847,3.0899,3.0895,3.0892,3.089,3.0713,3.0711,0,0,0,0,0,0,3.1214,3.1197,3.1086,3.1081,3.1154,3.1091,3.1081,3.1055,3.0998,3.099,3.1034,3.1035,3.0945,3.0935,3.0926,3.0852,3.0894,3.0889,3.0886,3.0715,3.0713,3.0711,0,0,0,0,0,0,3.1217,3.1204,3.109,3.1139,3.1124,3.1087,3.1058,3.1053,3.1032,3.0989,3.0982,3.1019,3.0946,3.0933,3.0874,3.0849,3.0887,3.0882,3.0717,3.0714,3.0712,3.0706,0,0,0,0,0,0,3.1221,3.1205,3.1185,3.1139,3.1121,3.1042,3.1057,3.105,3.1024,3.1024,3.0973,3.0966,3.0946,3.0882,3.0869,3.0843,3.0878,3.0719,3.0715,3.0713,3.0708,3.0704,3.07,0,0,0,0,0,3.1227,3.1185,3.1184,3.117,3.1095,3.1041,3.1031,3.101,3.1022,3.0999,3.0972,3.0967,3.0854,3.0876,3.0862,3.0833,3.072,3.0716,3.0713,3.071,3.0705,3.07,0,0,0,0,0,0,3.1227,3.1179,3.1177,3.112,3.1085,3.1039,3.1011,3.1005,3.0965,3.0966,3.094,3.0929,3.0871,3.0846,3.0871,3.0772,3.0788,3.0781,3.0791,3.0785,3.0781,3.0788,3.0874,0,0,0,0,0,3.1221,3.1183,3.1142,3.1096,3.1079,3.1048,3.1023,3.1011,3.0972,3.0957,3.0925,3.0885,3.0841,3.0812,3.0768,3.0705,3.0692,3.0678,3.0674,3.0671,3.0665,3.0627,3.062,3.0699,3.0699,3.0699,0,0,3.1207,3.1176,3.1153,3.1095,3.1066,3.1025,3.1035,3.0991,3.096,3.0949,3.0892,3.0867,3.0821,3.076,3.0731,3.0737,3.064,3.0666,3.0664,3.0659,3.0623,3.0615,3.0608,3.0697,3.0697,3.0697,0,0,3.116,3.1134,3.1092,3.1064,3.1021,3.1001,3.099,3.0946,3.0929,3.0872,3.0863,3.0823,3.0748,3.0715,3.0689,3.0629,3.0622,3.0615,3.0592,3.0556,3.055,3.0544,3.0521,3.0513,3.061,3.061,3.061,0,3.1148,3.1088,3.107,3.1027,3.1,3.0991,3.0946,3.0919,3.0863,3.0844,3.0852,3.0756,3.0725,3.0655,3.064,3.062,3.0605,3.062,3.0553,3.0547,3.0541,3.0519,3.051,3.0609,3.0609,3.0609,3.0609,0,3.1073,3.1032,3.1002,3.0952,3.0921,3.0878,3.0851,3.0822,3.0812,3.079,3.073,3.0692,3.064,3.0623,3.0612,3.055,3.0555,3.0559,3.0573,3.0533,3.0512,3.0503,3.0608,3.0608,3.0608,3.0608,0,0,3.1024,3.0964,3.0954,3.093,3.0882,3.0848,3.0802,3.0754,3.0729,3.069,3.065,3.0586,3.0589,3.0558,3.0543,3.0512,3.0464,3.0519,3.0517,3.0508,3.0392,3.0389,3.0379,3.0461,3.0459,3.0458,3.0395,0,3.0971,3.0893,3.0875,3.0806,3.0766,3.0757,3.0717,3.0681,3.0659,3.062,3.0594,3.0549,3.0557,3.0538,3.0507,3.0477,3.044,3.0481,3.042,3.0418,3.0431,3.0368,3.0365,3.0308,3.0387,3.0385,3.0384,0,3.0899,3.0861,3.0789,3.0745,3.0728,3.0693,3.0646,3.061,3.0568,3.0554,3.052,3.0508,3.0457,3.0476,3.0404,3.0432,3.0406,3.0387,3.0384,3.0377,3.0398,3.0357,3.0289,3.028,3.0371,3.0372,3.0373,0,3.0868,3.0799,3.0747,3.0727,3.0675,3.065,3.0627,3.0587,3.0559,3.0517,3.0498,3.045,3.0423,3.0385,3.0359,3.0375,3.0289,3.0305,3.0273,3.0274,3.0254,3.0256,3.018,3.024,3.024,3.024,3.024,0,3.081,3.0765,3.0732,3.07,3.0649,3.0628,3.0578,3.0554,3.0518,3.0479,3.0467,3.043,3.0399,3.0357,3.0336,3.0278,3.0266,3.0252,3.0246,3.0252,3.0254,3.0233,3.0236,3.0238,3.0238,3.0239,3.0239,0,3.0766,3.0743,3.0685,3.0641,3.0629,3.0593,3.0554,3.0521,3.0499,3.0449,3.0436,3.04,3.0349,3.032,3.0256,3.0242,3.0177,3.0175,3.0192,3.0189,3.0158,3.0161,3.0066,3.0051,3.0122,3.0122,3.0121,0,3.073,3.0696,3.0649,3.0624,3.0601,3.0559,3.053,3.0507,3.0477,3.0427,3.0399,3.0349,3.0307,3.0226,3.0192,3.0142,3.0137,3.0107,3.0129,3.0136,3.0135,3.0137,3.0132,3.0103,3.0102,3.0102,3.0101,0,3.0668,3.0658,3.0619,3.0575,3.0542,3.0505,3.0469,3.0447,3.0418,3.0384,3.0334,3.0302,3.0237,3.0186,3.0133,3.0106,3.0097,3.0095,3.0084,3.0089,3.01,3.0092,3.018,3.0097,3.0097,3.0097,3.0098,3.0098,3.0626,3.0595,3.0557,3.0513,3.0484,3.045,3.0416,3.039,3.0349,3.0296,3.0284,3.023,3.0187,3.0117,3.0088,3.0043,3.0048,3.0034,3.003,3.0026,3.0025,3.0109,3.0034,3.0034,3.0034,3.0034,3.0034,0,3.0562,3.0537,3.0497,3.0448,3.0412,3.0411,3.037,3.0339,3.0293,3.0256,3.0215,3.0156,3.0106,3.0069,3.0017,2.9988,2.9983,2.9975,2.9976,2.997,3.0024,3.0037,2.998,2.998,2.998,2.998,2.998,2.998,3.0524,3.0471,3.0456,3.0388,3.0362,3.0312,3.0288,3.0256,3.0226,3.0161,3.0121,3.0097,3.0059,3.0004,2.9957,2.9947,2.9927,2.992,2.9909,2.996,2.9966,2.9971,2.9984,2.9917,2.9917,2.9858,2.9858,2.9858]}]]